;Netzebenenlast
;Umspannung HS/MS
;FE_MS/S_Netzebenenlast
Datum;Leistungsmittelwert in kW
01.01.2023 00:15;134908
01.01.2023 00:30;134915
01.01.2023 00:45;134537
01.01.2023 01:00;134442
01.01.2023 01:15;134427
01.01.2023 01:30;135180
01.01.2023 01:45;134251
01.01.2023 02:00;134174
01.01.2023 02:15;134436
01.01.2023 02:30;134914
01.01.2023 02:45;134529
01.01.2023 03:00;134552
01.01.2023 03:15;134010
01.01.2023 03:30;134926
01.01.2023 03:45;135243
01.01.2023 04:00;134270
01.01.2023 04:15;134452
01.01.2023 04:30;133865
01.01.2023 04:45;134629
01.01.2023 05:00;133940
01.01.2023 05:15;134387
01.01.2023 05:30;134505
01.01.2023 05:45;134002
01.01.2023 06:00;135354
01.01.2023 06:15;134109
01.01.2023 06:30;134425
01.01.2023 06:45;134846
01.01.2023 07:00;133917
01.01.2023 07:15;135067
01.01.2023 07:30;135080
01.01.2023 07:45;135113
01.01.2023 08:00;133949
01.01.2023 08:15;135280
01.01.2023 08:30;134573
01.01.2023 08:45;136166
01.01.2023 09:00;135657
01.01.2023 09:15;135165
01.01.2023 09:30;136862
01.01.2023 09:45;135756
01.01.2023 10:00;136253
01.01.2023 10:15;135740
01.01.2023 10:30;134926
01.01.2023 10:45;134910
01.01.2023 11:00;134825
01.01.2023 11:15;134549
01.01.2023 11:30;135074
01.01.2023 11:45;134596
01.01.2023 12:00;134066
01.01.2023 12:15;134470
01.01.2023 12:30;134200
01.01.2023 12:45;134697
01.01.2023 13:00;133514
01.01.2023 13:15;134139
01.01.2023 13:30;134163
01.01.2023 13:45;134060
01.01.2023 14:00;134254
01.01.2023 14:15;133709
01.01.2023 14:30;134228
01.01.2023 14:45;133862
01.01.2023 15:00;134497
01.01.2023 15:15;134864
01.01.2023 15:30;134510
01.01.2023 15:45;134875
01.01.2023 16:00;134216
01.01.2023 16:15;135256
01.01.2023 16:30;135052
01.01.2023 16:45;135140
01.01.2023 17:00;134321
01.01.2023 17:15;134217
01.01.2023 17:30;134510
01.01.2023 17:45;134327
01.01.2023 18:00;134086
01.01.2023 18:15;135607
01.01.2023 18:30;133754
01.01.2023 18:45;134379
01.01.2023 19:00;134548
01.01.2023 19:15;135926
01.01.2023 19:30;135571
01.01.2023 19:45;136742
01.01.2023 20:00;136371
01.01.2023 20:15;137807
01.01.2023 20:30;137326
01.01.2023 20:45;136967
01.01.2023 21:00;137118
01.01.2023 21:15;137831
01.01.2023 21:30;137107
01.01.2023 21:45;137153
01.01.2023 22:00;137744
01.01.2023 22:15;137594
01.01.2023 22:30;136900
01.01.2023 22:45;138076
01.01.2023 23:00;137537
01.01.2023 23:15;137979
01.01.2023 23:30;137164
01.01.2023 23:45;137551
02.01.2023 00:00;137437
02.01.2023 00:15;137375
02.01.2023 00:30;136076
02.01.2023 00:45;135912
02.01.2023 01:00;136510
02.01.2023 01:15;136369
02.01.2023 01:30;135663
02.01.2023 01:45;135388
02.01.2023 02:00;136279
02.01.2023 02:15;135113
02.01.2023 02:30;134688
02.01.2023 02:45;135039
02.01.2023 03:00;135456
02.01.2023 03:15;135663
02.01.2023 03:30;135832
02.01.2023 03:45;135186
02.01.2023 04:00;135674
02.01.2023 04:15;135127
02.01.2023 04:30;136039
02.01.2023 04:45;136094
02.01.2023 05:00;136599
02.01.2023 05:15;136914
02.01.2023 05:30;138697
02.01.2023 05:45;138322
02.01.2023 06:00;139273
02.01.2023 06:15;139966
02.01.2023 06:30;141184
02.01.2023 06:45;142918
02.01.2023 07:00;143561
02.01.2023 07:15;144013
02.01.2023 07:30;143899
02.01.2023 07:45;144243
02.01.2023 08:00;144620
02.01.2023 08:15;143559
02.01.2023 08:30;142234
02.01.2023 08:45;142961
02.01.2023 09:00;142898
02.01.2023 09:15;143762
02.01.2023 09:30;144112
02.01.2023 09:45;142768
02.01.2023 10:00;142654
02.01.2023 10:15;141112
02.01.2023 10:30;140964
02.01.2023 10:45;143671
02.01.2023 11:00;142875
02.01.2023 11:15;143397
02.01.2023 11:30;142821
02.01.2023 11:45;142719
02.01.2023 12:00;142984
02.01.2023 12:15;142363
02.01.2023 12:30;142453
02.01.2023 12:45;142221
02.01.2023 13:00;142894
02.01.2023 13:15;142502
02.01.2023 13:30;141936
02.01.2023 13:45;141446
02.01.2023 14:00;141326
02.01.2023 14:15;142229
02.01.2023 14:30;142226
02.01.2023 14:45;142020
02.01.2023 15:00;141526
02.01.2023 15:15;141275
02.01.2023 15:30;141155
02.01.2023 15:45;141621
02.01.2023 16:00;141907
02.01.2023 16:15;142282
02.01.2023 16:30;143827
02.01.2023 16:45;143356
02.01.2023 17:00;143125
02.01.2023 17:15;144419
02.01.2023 17:30;143994
02.01.2023 17:45;142247
02.01.2023 18:00;139114
02.01.2023 18:15;137818
02.01.2023 18:30;137945
02.01.2023 18:45;138972
02.01.2023 19:00;139595
02.01.2023 19:15;139175
02.01.2023 19:30;140579
02.01.2023 19:45;138595
02.01.2023 20:00;139469
02.01.2023 20:15;139810
02.01.2023 20:30;140316
02.01.2023 20:45;140855
02.01.2023 21:00;139372
02.01.2023 21:15;140593
02.01.2023 21:30;140277
02.01.2023 21:45;139263
02.01.2023 22:00;137948
02.01.2023 22:15;138635
02.01.2023 22:30;139015
02.01.2023 22:45;140476
02.01.2023 23:00;140296
02.01.2023 23:15;139933
02.01.2023 23:30;140191
02.01.2023 23:45;140633
03.01.2023 00:00;138820
03.01.2023 00:15;139148
03.01.2023 00:30;140465
03.01.2023 00:45;139462
03.01.2023 01:00;140699
03.01.2023 01:15;139533
03.01.2023 01:30;140559
03.01.2023 01:45;140544
03.01.2023 02:00;139740
03.01.2023 02:15;138200
03.01.2023 02:30;137090
03.01.2023 02:45;139329
03.01.2023 03:00;139381
03.01.2023 03:15;139660
03.01.2023 03:30;139655
03.01.2023 03:45;138252
03.01.2023 04:00;137889
03.01.2023 04:15;139391
03.01.2023 04:30;139177
03.01.2023 04:45;140018
03.01.2023 05:00;139662
03.01.2023 05:15;140051
03.01.2023 05:30;140369
03.01.2023 05:45;138081
03.01.2023 06:00;139044
03.01.2023 06:15;139348
03.01.2023 06:30;141922
03.01.2023 06:45;141945
03.01.2023 07:00;143121
03.01.2023 07:15;143973
03.01.2023 07:30;143171
03.01.2023 07:45;144472
03.01.2023 08:00;143134
03.01.2023 08:15;143709
03.01.2023 08:30;143920
03.01.2023 08:45;143864
03.01.2023 09:00;142643
03.01.2023 09:15;142197
03.01.2023 09:30;142280
03.01.2023 09:45;143082
03.01.2023 10:00;142350
03.01.2023 10:15;140673
03.01.2023 10:30;140381
03.01.2023 10:45;141046
03.01.2023 11:00;142000
03.01.2023 11:15;141640
03.01.2023 11:30;141665
03.01.2023 11:45;140806
03.01.2023 12:00;141399
03.01.2023 12:15;141091
03.01.2023 12:30;141007
03.01.2023 12:45;140740
03.01.2023 13:00;140339
03.01.2023 13:15;140745
03.01.2023 13:30;140121
03.01.2023 13:45;138384
03.01.2023 14:00;138319
03.01.2023 14:15;140315
03.01.2023 14:30;139196
03.01.2023 14:45;140199
03.01.2023 15:00;140269
03.01.2023 15:15;139543
03.01.2023 15:30;139488
03.01.2023 15:45;138758
03.01.2023 16:00;138130
03.01.2023 16:15;138004
03.01.2023 16:30;139730
03.01.2023 16:45;138704
03.01.2023 17:00;138840
03.01.2023 17:15;139398
03.01.2023 17:30;138862
03.01.2023 17:45;138011
03.01.2023 18:00;138079
03.01.2023 18:15;136457
03.01.2023 18:30;136344
03.01.2023 18:45;137648
03.01.2023 19:00;138594
03.01.2023 19:15;137952
03.01.2023 19:30;138251
03.01.2023 19:45;137734
03.01.2023 20:00;137955
03.01.2023 20:15;137555
03.01.2023 20:30;138649
03.01.2023 20:45;137510
03.01.2023 21:00;137819
03.01.2023 21:15;138523
03.01.2023 21:30;139220
03.01.2023 21:45;138356
03.01.2023 22:00;136703
03.01.2023 22:15;137572
03.01.2023 22:30;137110
03.01.2023 22:45;138080
03.01.2023 23:00;138808
03.01.2023 23:15;138398
03.01.2023 23:30;137929
03.01.2023 23:45;139497
04.01.2023 00:00;139069
04.01.2023 00:15;139892
04.01.2023 00:30;140025
04.01.2023 00:45;139410
04.01.2023 01:00;139730
04.01.2023 01:15;139386
04.01.2023 01:30;139038
04.01.2023 01:45;138408
04.01.2023 02:00;138811
04.01.2023 02:15;137572
04.01.2023 02:30;138543
04.01.2023 02:45;139516
04.01.2023 03:00;139625
04.01.2023 03:15;139823
04.01.2023 03:30;139798
04.01.2023 03:45;138828
04.01.2023 04:00;138032
04.01.2023 04:15;139514
04.01.2023 04:30;137096
04.01.2023 04:45;138996
04.01.2023 05:00;139810
04.01.2023 05:15;140313
04.01.2023 05:30;140495
04.01.2023 05:45;138765
04.01.2023 06:00;138020
04.01.2023 06:15;138295
04.01.2023 06:30;139211
04.01.2023 06:45;139641
04.01.2023 07:00;141056
04.01.2023 07:15;142402
04.01.2023 07:30;143973
04.01.2023 07:45;145168
04.01.2023 08:00;143277
04.01.2023 08:15;144569
04.01.2023 08:30;144422
04.01.2023 08:45;144944
04.01.2023 09:00;144902
04.01.2023 09:15;145994
04.01.2023 09:30;145946
04.01.2023 09:45;145214
04.01.2023 10:00;145207
04.01.2023 10:15;142482
04.01.2023 10:30;144764
04.01.2023 10:45;144105
04.01.2023 11:00;145838
04.01.2023 11:15;145497
04.01.2023 11:30;142359
04.01.2023 11:45;141324
04.01.2023 12:00;142158
04.01.2023 12:15;141822
04.01.2023 12:30;140369
04.01.2023 12:45;140941
04.01.2023 13:00;141911
04.01.2023 13:15;141584
04.01.2023 13:30;141971
04.01.2023 13:45;138860
04.01.2023 14:00;139935
04.01.2023 14:15;139887
04.01.2023 14:30;141030
04.01.2023 14:45;141400
04.01.2023 15:00;141337
04.01.2023 15:15;140972
04.01.2023 15:30;141015
04.01.2023 15:45;140999
04.01.2023 16:00;140309
04.01.2023 16:15;140697
04.01.2023 16:30;140210
04.01.2023 16:45;139578
04.01.2023 17:00;140721
04.01.2023 17:15;141063
04.01.2023 17:30;140524
04.01.2023 17:45;140914
04.01.2023 18:00;140237
04.01.2023 18:15;138858
04.01.2023 18:30;138231
04.01.2023 18:45;140226
04.01.2023 19:00;140011
04.01.2023 19:15;138551
04.01.2023 19:30;138091
04.01.2023 19:45;141070
04.01.2023 20:00;140276
04.01.2023 20:15;140542
04.01.2023 20:30;140070
04.01.2023 20:45;139811
04.01.2023 21:00;141160
04.01.2023 21:15;140008
04.01.2023 21:30;140014
04.01.2023 21:45;139967
04.01.2023 22:00;139852
04.01.2023 22:15;139346
04.01.2023 22:30;141429
04.01.2023 22:45;140388
04.01.2023 23:00;139096
04.01.2023 23:15;139595
04.01.2023 23:30;139182
04.01.2023 23:45;139125
05.01.2023 00:00;139742
05.01.2023 00:15;138380
05.01.2023 00:30;138898
05.01.2023 00:45;139271
05.01.2023 01:00;138515
05.01.2023 01:15;138927
05.01.2023 01:30;138226
05.01.2023 01:45;138481
05.01.2023 02:00;138343
05.01.2023 02:15;136430
05.01.2023 02:30;135967
05.01.2023 02:45;137302
05.01.2023 03:00;137731
05.01.2023 03:15;138617
05.01.2023 03:30;138445
05.01.2023 03:45;137969
05.01.2023 04:00;137646
05.01.2023 04:15;138030
05.01.2023 04:30;138491
05.01.2023 04:45;138170
05.01.2023 05:00;138808
05.01.2023 05:15;138346
05.01.2023 05:30;138980
05.01.2023 05:45;136471
05.01.2023 06:00;136633
05.01.2023 06:15;137325
05.01.2023 06:30;136032
05.01.2023 06:45;137561
05.01.2023 07:00;139633
05.01.2023 07:15;140265
05.01.2023 07:30;139145
05.01.2023 07:45;140724
05.01.2023 08:00;139537
05.01.2023 08:15;140991
05.01.2023 08:30;140876
05.01.2023 08:45;140764
05.01.2023 09:00;140547
05.01.2023 09:15;141087
05.01.2023 09:30;142624
05.01.2023 09:45;142115
05.01.2023 10:00;141971
05.01.2023 10:15;140668
05.01.2023 10:30;140631
05.01.2023 10:45;142854
05.01.2023 11:00;142212
05.01.2023 11:15;142746
05.01.2023 11:30;142135
05.01.2023 11:45;141223
05.01.2023 12:00;141758
05.01.2023 12:15;139908
05.01.2023 12:30;141058
05.01.2023 12:45;140969
05.01.2023 13:00;141509
05.01.2023 13:15;141977
05.01.2023 13:30;141719
05.01.2023 13:45;140226
05.01.2023 14:00;139994
05.01.2023 14:15;140942
05.01.2023 14:30;139413
05.01.2023 14:45;139413
05.01.2023 15:00;139145
05.01.2023 15:15;138969
05.01.2023 15:30;138574
05.01.2023 15:45;138440
05.01.2023 16:00;137047
05.01.2023 16:15;135901
05.01.2023 16:30;136579
05.01.2023 16:45;135887
05.01.2023 17:00;136450
05.01.2023 17:15;136513
05.01.2023 17:30;136842
05.01.2023 17:45;137085
05.01.2023 18:00;138848
05.01.2023 18:15;139708
05.01.2023 18:30;139717
05.01.2023 18:45;139001
05.01.2023 19:00;138931
05.01.2023 19:15;139210
05.01.2023 19:30;138547
05.01.2023 19:45;139594
05.01.2023 20:00;138899
05.01.2023 20:15;138516
05.01.2023 20:30;138734
05.01.2023 20:45;138684
05.01.2023 21:00;138738
05.01.2023 21:15;138042
05.01.2023 21:30;139382
05.01.2023 21:45;137484
05.01.2023 22:00;136668
05.01.2023 22:15;135928
05.01.2023 22:30;137704
05.01.2023 22:45;137151
05.01.2023 23:00;137481
05.01.2023 23:15;137758
05.01.2023 23:30;137293
05.01.2023 23:45;137209
06.01.2023 00:00;136663
06.01.2023 00:15;137568
06.01.2023 00:30;136800
06.01.2023 00:45;136347
06.01.2023 01:00;136835
06.01.2023 01:15;136117
06.01.2023 01:30;136167
06.01.2023 01:45;136323
06.01.2023 02:00;136541
06.01.2023 02:15;134309
06.01.2023 02:30;135988
06.01.2023 02:45;136977
06.01.2023 03:00;136147
06.01.2023 03:15;137613
06.01.2023 03:30;137131
06.01.2023 03:45;136795
06.01.2023 04:00;137113
06.01.2023 04:15;137538
06.01.2023 04:30;137425
06.01.2023 04:45;136361
06.01.2023 05:00;137306
06.01.2023 05:15;137121
06.01.2023 05:30;136133
06.01.2023 05:45;134361
06.01.2023 06:00;135148
06.01.2023 06:15;135926
06.01.2023 06:30;137769
06.01.2023 06:45;138096
06.01.2023 07:00;138354
06.01.2023 07:15;140024
06.01.2023 07:30;139489
06.01.2023 07:45;139964
06.01.2023 08:00;141010
06.01.2023 08:15;139662
06.01.2023 08:30;140116
06.01.2023 08:45;138880
06.01.2023 09:00;139855
06.01.2023 09:15;139024
06.01.2023 09:30;139469
06.01.2023 09:45;139957
06.01.2023 10:00;139280
06.01.2023 10:15;137622
06.01.2023 10:30;137187
06.01.2023 10:45;139225
06.01.2023 11:00;139774
06.01.2023 11:15;139687
06.01.2023 11:30;139071
06.01.2023 11:45;139639
06.01.2023 12:00;139367
06.01.2023 12:15;140801
06.01.2023 12:30;139443
06.01.2023 12:45;140023
06.01.2023 13:00;140949
06.01.2023 13:15;143224
06.01.2023 13:30;143442
06.01.2023 13:45;143742
06.01.2023 14:00;141958
06.01.2023 14:15;143083
06.01.2023 14:30;145330
06.01.2023 14:45;145587
06.01.2023 15:00;144277
06.01.2023 15:15;144809
06.01.2023 15:30;143950
06.01.2023 15:45;143671
06.01.2023 16:00;144366
06.01.2023 16:15;143765
06.01.2023 16:30;142882
06.01.2023 16:45;138977
06.01.2023 17:00;139153
06.01.2023 17:15;139701
06.01.2023 17:30;137257
06.01.2023 17:45;137490
06.01.2023 18:00;137421
06.01.2023 18:15;139047
06.01.2023 18:30;139327
06.01.2023 18:45;140282
06.01.2023 19:00;139927
06.01.2023 19:15;139906
06.01.2023 19:30;139794
06.01.2023 19:45;138383
06.01.2023 20:00;139610
06.01.2023 20:15;139896
06.01.2023 20:30;140505
06.01.2023 20:45;139806
06.01.2023 21:00;139351
06.01.2023 21:15;137853
06.01.2023 21:30;138722
06.01.2023 21:45;141029
06.01.2023 22:00;140433
06.01.2023 22:15;140232
06.01.2023 22:30;141008
06.01.2023 22:45;140725
06.01.2023 23:00;141282
06.01.2023 23:15;141472
06.01.2023 23:30;141201
06.01.2023 23:45;140336
07.01.2023 00:00;141450
07.01.2023 00:15;139155
07.01.2023 00:30;141080
07.01.2023 00:45;139785
07.01.2023 01:00;140908
07.01.2023 01:15;140673
07.01.2023 01:30;139877
07.01.2023 01:45;140845
07.01.2023 02:00;141344
07.01.2023 02:15;138557
07.01.2023 02:30;138605
07.01.2023 02:45;140351
07.01.2023 03:00;139830
07.01.2023 03:15;139747
07.01.2023 03:30;139989
07.01.2023 03:45;139576
07.01.2023 04:00;139895
07.01.2023 04:15;139372
07.01.2023 04:30;139322
07.01.2023 04:45;138816
07.01.2023 05:00;137969
07.01.2023 05:15;138365
07.01.2023 05:30;137961
07.01.2023 05:45;137653
07.01.2023 06:00;136839
07.01.2023 06:15;137120
07.01.2023 06:30;137429
07.01.2023 06:45;137784
07.01.2023 07:00;137417
07.01.2023 07:15;137601
07.01.2023 07:30;138048
07.01.2023 07:45;136961
07.01.2023 08:00;138369
07.01.2023 08:15;137401
07.01.2023 08:30;137332
07.01.2023 08:45;138033
07.01.2023 09:00;137781
07.01.2023 09:15;136873
07.01.2023 09:30;137086
07.01.2023 09:45;137178
07.01.2023 10:00;136549
07.01.2023 10:15;137213
07.01.2023 10:30;137336
07.01.2023 10:45;137846
07.01.2023 11:00;137538
07.01.2023 11:15;136596
07.01.2023 11:30;138132
07.01.2023 11:45;137575
07.01.2023 12:00;137436
07.01.2023 12:15;137386
07.01.2023 12:30;137029
07.01.2023 12:45;137490
07.01.2023 13:00;137078
07.01.2023 13:15;138258
07.01.2023 13:30;136584
07.01.2023 13:45;137233
07.01.2023 14:00;137267
07.01.2023 14:15;136617
07.01.2023 14:30;137364
07.01.2023 14:45;137085
07.01.2023 15:00;137463
07.01.2023 15:15;137916
07.01.2023 15:30;137124
07.01.2023 15:45;137129
07.01.2023 16:00;136663
07.01.2023 16:15;136744
07.01.2023 16:30;136895
07.01.2023 16:45;137045
07.01.2023 17:00;136258
07.01.2023 17:15;137491
07.01.2023 17:30;136715
07.01.2023 17:45;136511
07.01.2023 18:00;137588
07.01.2023 18:15;136406
07.01.2023 18:30;136673
07.01.2023 18:45;136169
07.01.2023 19:00;136596
07.01.2023 19:15;136668
07.01.2023 19:30;137135
07.01.2023 19:45;136724
07.01.2023 20:00;137611
07.01.2023 20:15;136882
07.01.2023 20:30;138196
07.01.2023 20:45;139575
07.01.2023 21:00;138807
07.01.2023 21:15;137824
07.01.2023 21:30;139284
07.01.2023 21:45;137917
07.01.2023 22:00;140221
07.01.2023 22:15;140176
07.01.2023 22:30;140441
07.01.2023 22:45;140198
07.01.2023 23:00;140083
07.01.2023 23:15;139303
07.01.2023 23:30;138101
07.01.2023 23:45;137854
08.01.2023 00:00;137533
08.01.2023 00:15;137823
08.01.2023 00:30;138348
08.01.2023 00:45;139980
08.01.2023 01:00;140279
08.01.2023 01:15;139269
08.01.2023 01:30;139425
08.01.2023 01:45;139896
08.01.2023 02:00;140123
08.01.2023 02:15;138158
08.01.2023 02:30;139838
08.01.2023 02:45;139125
08.01.2023 03:00;140434
08.01.2023 03:15;139966
08.01.2023 03:30;139979
08.01.2023 03:45;138380
08.01.2023 04:00;138054
08.01.2023 04:15;138872
08.01.2023 04:30;139252
08.01.2023 04:45;139840
08.01.2023 05:00;139776
08.01.2023 05:15;138526
08.01.2023 05:30;138754
08.01.2023 05:45;137222
08.01.2023 06:00;137874
08.01.2023 06:15;137838
08.01.2023 06:30;139688
08.01.2023 06:45;139384
08.01.2023 07:00;138954
08.01.2023 07:15;139530
08.01.2023 07:30;139492
08.01.2023 07:45;139816
08.01.2023 08:00;139453
08.01.2023 08:15;139943
08.01.2023 08:30;139623
08.01.2023 08:45;139825
08.01.2023 09:00;139747
08.01.2023 09:15;138699
08.01.2023 09:30;138927
08.01.2023 09:45;138248
08.01.2023 10:00;139203
08.01.2023 10:15;139558
08.01.2023 10:30;139988
08.01.2023 10:45;139991
08.01.2023 11:00;139730
08.01.2023 11:15;139703
08.01.2023 11:30;139113
08.01.2023 11:45;139762
08.01.2023 12:00;138563
08.01.2023 12:15;137850
08.01.2023 12:30;137344
08.01.2023 12:45;137379
08.01.2023 13:00;137675
08.01.2023 13:15;139134
08.01.2023 13:30;140153
08.01.2023 13:45;138987
08.01.2023 14:00;140672
08.01.2023 14:15;139774
08.01.2023 14:30;139012
08.01.2023 14:45;140689
08.01.2023 15:00;138548
08.01.2023 15:15;140109
08.01.2023 15:30;138895
08.01.2023 15:45;138823
08.01.2023 16:00;137400
08.01.2023 16:15;137277
08.01.2023 16:30;138738
08.01.2023 16:45;139692
08.01.2023 17:00;139365
08.01.2023 17:15;139260
08.01.2023 17:30;138388
08.01.2023 17:45;137442
08.01.2023 18:00;138040
08.01.2023 18:15;138417
08.01.2023 18:30;139536
08.01.2023 18:45;139843
08.01.2023 19:00;139812
08.01.2023 19:15;139829
08.01.2023 19:30;138907
08.01.2023 19:45;138804
08.01.2023 20:00;138511
08.01.2023 20:15;139801
08.01.2023 20:30;140776
08.01.2023 20:45;140429
08.01.2023 21:00;141252
08.01.2023 21:15;140460
08.01.2023 21:30;140700
08.01.2023 21:45;140521
08.01.2023 22:00;141009
08.01.2023 22:15;140288
08.01.2023 22:30;139274
08.01.2023 22:45;137927
08.01.2023 23:00;137960
08.01.2023 23:15;138481
08.01.2023 23:30;139362
08.01.2023 23:45;140978
09.01.2023 00:00;139803
09.01.2023 00:15;140202
09.01.2023 00:30;140056
09.01.2023 00:45;140551
09.01.2023 01:00;140153
09.01.2023 01:15;138233
09.01.2023 01:30;140948
09.01.2023 01:45;140541
09.01.2023 02:00;140780
09.01.2023 02:15;140828
09.01.2023 02:30;140195
09.01.2023 02:45;138973
09.01.2023 03:00;139802
09.01.2023 03:15;141176
09.01.2023 03:30;140742
09.01.2023 03:45;141561
09.01.2023 04:00;140908
09.01.2023 04:15;140767
09.01.2023 04:30;141080
09.01.2023 04:45;141046
09.01.2023 05:00;141128
09.01.2023 05:15;141188
09.01.2023 05:30;140525
09.01.2023 05:45;139921
09.01.2023 06:00;139708
09.01.2023 06:15;140220
09.01.2023 06:30;140883
09.01.2023 06:45;139022
09.01.2023 07:00;139038
09.01.2023 07:15;138516
09.01.2023 07:30;139670
09.01.2023 07:45;139413
09.01.2023 08:00;138410
09.01.2023 08:15;140411
09.01.2023 08:30;139270
09.01.2023 08:45;140074
09.01.2023 09:00;139173
09.01.2023 09:15;138440
09.01.2023 09:30;139427
09.01.2023 09:45;138918
09.01.2023 10:00;139236
09.01.2023 10:15;137264
09.01.2023 10:30;137829
09.01.2023 10:45;139056
09.01.2023 11:00;140218
09.01.2023 11:15;139580
09.01.2023 11:30;139451
09.01.2023 11:45;139033
09.01.2023 12:00;138600
09.01.2023 12:15;139434
09.01.2023 12:30;138675
09.01.2023 12:45;138954
09.01.2023 13:00;138552
09.01.2023 13:15;138152
09.01.2023 13:30;138113
09.01.2023 13:45;137283
09.01.2023 14:00;138282
09.01.2023 14:15;138789
09.01.2023 14:30;138751
09.01.2023 14:45;138642
09.01.2023 15:00;138314
09.01.2023 15:15;138839
09.01.2023 15:30;138566
09.01.2023 15:45;138998
09.01.2023 16:00;138582
09.01.2023 16:15;138477
09.01.2023 16:30;138899
09.01.2023 16:45;140150
09.01.2023 17:00;138390
09.01.2023 17:15;137968
09.01.2023 17:30;139122
09.01.2023 17:45;138213
09.01.2023 18:00;138630
09.01.2023 18:15;136582
09.01.2023 18:30;137578
09.01.2023 18:45;137673
09.01.2023 19:00;136399
09.01.2023 19:15;136261
09.01.2023 19:30;136754
09.01.2023 19:45;136232
09.01.2023 20:00;136816
09.01.2023 20:15;136414
09.01.2023 20:30;135310
09.01.2023 20:45;137129
09.01.2023 21:00;135398
09.01.2023 21:15;135543
09.01.2023 21:30;135789
09.01.2023 21:45;134839
09.01.2023 22:00;134575
09.01.2023 22:15;134763
09.01.2023 22:30;135782
09.01.2023 22:45;135792
09.01.2023 23:00;136406
09.01.2023 23:15;137083
09.01.2023 23:30;136172
09.01.2023 23:45;135196
10.01.2023 00:00;136374
10.01.2023 00:15;136188
10.01.2023 00:30;136223
10.01.2023 00:45;136434
10.01.2023 01:00;135937
10.01.2023 01:15;135955
10.01.2023 01:30;135480
10.01.2023 01:45;137021
10.01.2023 02:00;135643
10.01.2023 02:15;134953
10.01.2023 02:30;134507
10.01.2023 02:45;137520
10.01.2023 03:00;138147
10.01.2023 03:15;139102
10.01.2023 03:30;136197
10.01.2023 03:45;136198
10.01.2023 04:00;136463
10.01.2023 04:15;136374
10.01.2023 04:30;136550
10.01.2023 04:45;136480
10.01.2023 05:00;138967
10.01.2023 05:15;137559
10.01.2023 05:30;138414
10.01.2023 05:45;136406
10.01.2023 06:00;136731
10.01.2023 06:15;137801
10.01.2023 06:30;138716
10.01.2023 06:45;139173
10.01.2023 07:00;140231
10.01.2023 07:15;139890
10.01.2023 07:30;140058
10.01.2023 07:45;141605
10.01.2023 08:00;141825
10.01.2023 08:15;141430
10.01.2023 08:30;141052
10.01.2023 08:45;140210
10.01.2023 09:00;140924
10.01.2023 09:15;140105
10.01.2023 09:30;140580
10.01.2023 09:45;140114
10.01.2023 10:00;140630
10.01.2023 10:15;138171
10.01.2023 10:30;137314
10.01.2023 10:45;139278
10.01.2023 11:00;139937
10.01.2023 11:15;139705
10.01.2023 11:30;140076
10.01.2023 11:45;138739
10.01.2023 12:00;139539
10.01.2023 12:15;139444
10.01.2023 12:30;140056
10.01.2023 12:45;139432
10.01.2023 13:00;140068
10.01.2023 13:15;140013
10.01.2023 13:30;140496
10.01.2023 13:45;140309
10.01.2023 14:00;137825
10.01.2023 14:15;139297
10.01.2023 14:30;138450
10.01.2023 14:45;139734
10.01.2023 15:00;138778
10.01.2023 15:15;138551
10.01.2023 15:30;138649
10.01.2023 15:45;138102
10.01.2023 16:00;137837
10.01.2023 16:15;138544
10.01.2023 16:30;138193
10.01.2023 16:45;137885
10.01.2023 17:00;137882
10.01.2023 17:15;137775
10.01.2023 17:30;137744
10.01.2023 17:45;138344
10.01.2023 18:00;138074
10.01.2023 18:15;135977
10.01.2023 18:30;135960
10.01.2023 18:45;136968
10.01.2023 19:00;139483
10.01.2023 19:15;136450
10.01.2023 19:30;136647
10.01.2023 19:45;135776
10.01.2023 20:00;135393
10.01.2023 20:15;136969
10.01.2023 20:30;137292
10.01.2023 20:45;136925
10.01.2023 21:00;136685
10.01.2023 21:15;137326
10.01.2023 21:30;136446
10.01.2023 21:45;135382
10.01.2023 22:00;134490
10.01.2023 22:15;134868
10.01.2023 22:30;137093
10.01.2023 22:45;138102
10.01.2023 23:00;137389